Location: Unspecified
(29.9680°N, 0.0000°E)
Time: 19:46:58
(UTC+00:00)

Transit 4A - All Passes

Search period start: 17 June 2019 00:00
Search period end: 27 June 2019 00:00
Orbit: 862 x 983 km, 66.8° (Epoch: 16 June)

Date Brightness Start Highest point End Pass type
(mag) Time Alt. Az. Time Alt. Az. Time Alt. Az.
17 Jun - 08:11:04 10° S 08:16:59 49° ESE 08:23:04 10° NE daylight
17 Jun - 09:58:45 10° WSW 10:03:34 23° NW 10:08:31 10° N daylight
17 Jun - 17:21:12 10° N 17:25:44 20° NE 17:30:10 10° E daylight
17 Jun - 19:06:18 10° NW 19:12:28 57° WSW 19:18:27 10° S daylight
18 Jun - 08:20:03 10° SSW 08:26:14 78° ESE 08:32:36 10° NNE daylight
18 Jun - 10:09:43 10° W 10:13:15 15° NW 10:16:50 10° NNW daylight
18 Jun - 17:29:51 10° N 17:35:20 30° ENE 17:40:41 10° ESE daylight
18 Jun - 19:16:01 10° NW 19:21:40 36° WSW 19:27:10 10° S daylight
19 Jun - 06:46:57 10° SE 06:49:57 14° ESE 06:52:59 10° ENE daylight
19 Jun - 08:29:23 10° SSW 08:35:34 69° WNW 08:41:56 10° NNE daylight
19 Jun - 17:38:48 10° NNW 17:44:51 45° ENE 17:50:43 10° SE daylight
19 Jun - 19:26:06 10° NW 19:30:47 22° WSW 19:35:23 10° SSW visible
20 Jun - 06:54:18 10° SSE 06:59:01 23° ESE 07:03:49 10° NE daylight
20 Jun - 08:39:04 10° SW 08:44:59 45° WNW 08:51:04 10° N daylight
20 Jun - 17:47:57 10° NNW 17:54:16 70° ENE 18:00:23 10° SSE daylight
20 Jun - 19:37:03 10° WNW 19:39:51 13° WSW 19:42:38 10° SW visible
21 Jun - 07:02:33 10° S 07:08:09 37° ESE 07:13:54 10° NE daylight
21 Jun - 08:49:07 10° WSW 08:54:30 30° WNW 09:00:01 10° N daylight
21 Jun - 16:13:00 10° NNE 16:16:35 15° NE 16:20:07 10° E daylight
21 Jun - 17:57:16 10° NNW 18:03:36 76° WSW 18:09:42 10° SSE daylight
22 Jun - 07:11:17 10° S 07:17:21 58° ESE 07:23:36 10° NNE daylight
22 Jun - 08:59:40 10° W 09:04:06 20° NW 09:08:39 10° N daylight
22 Jun - 16:21:20 10° N 16:26:16 23° NE 16:31:04 10° ESE daylight
22 Jun - 18:06:50 10° NW 18:12:51 48° WSW 18:18:40 10° S daylight
23 Jun - 07:20:25 10° SSW 07:26:38 90° SSW 07:33:03 10° NNE daylight
23 Jun - 09:11:00 10° WNW 09:13:50 13° NW 09:16:41 10° NNW daylight
23 Jun - 16:30:07 10° N 16:35:50 35° ENE 16:41:23 10° ESE daylight
23 Jun - 18:16:40 10° NW 18:22:00 30° WSW 18:27:14 10° SSW daylight
24 Jun - 05:46:27 10° SE 05:50:15 17° ESE 05:54:07 10° ENE daylight
24 Jun - 07:29:53 10° SW 07:36:00 59° WNW 07:42:19 10° NNE daylight
24 Jun - 16:39:08 10° NNW 16:45:18 53° ENE 16:51:17 10° SE daylight
24 Jun - 18:26:59 10° WNW 18:31:07 19° WSW 18:35:11 10° SW daylight
25 Jun - 05:54:14 10° SSE 05:59:22 27° ESE 06:04:35 10° NE daylight
25 Jun - 07:39:41 10° SW 07:45:28 38° WNW 07:51:23 10° N daylight
25 Jun - 15:05:20 10° NNE 15:07:24 12° NE 15:09:25 10° ENE daylight
25 Jun - 16:48:21 10° NNW 16:54:42 82° ENE 17:00:49 10° SSE daylight
25 Jun - 18:38:55 10° W 18:40:10 11° W 18:41:23 10° WSW daylight
26 Jun - 06:02:41 10° S 06:08:31 44° ESE 06:14:29 10° NE daylight
26 Jun - 07:49:54 10° WSW 07:55:01 26° NW 08:00:13 10° N daylight
26 Jun - 15:13:00 10° N 15:17:09 18° NE 15:21:12 10° E daylight
26 Jun - 16:57:45 10° NNW 17:03:59 65° WSW 17:10:01 10° SSE daylight
